Budapest Ferihegy, Hungary

4:20 PM CEST on September 28, 2016 (GMT +0200)
Ferihegy

Weather History for LHBP - January, 2013

Change the Weather History Date:

Friday, January 18, 2013

  Actual Average Record
Temperature  
Mean Temperature 32 °F -  
Max Temperature 35 °F 36 °F 53 °F (2007)
Min Temperature 30 °F 24 °F 14 °F (2005)
Degree Days  
Heating Degree Days 32    
Moisture  
Dew Point 32 °F    
Average Humidity 98    
Maximum Humidity 100    
Minimum Humidity 87    
Precipitation  
Precipitation 0.00 in - - ()
Sea Level Pressure  
Sea Level Pressure 29.54 in    
Wind  
Wind Speed 8 mph ()    
Max Wind Speed 12 mph    
Max Gust Speed -    
Visibility 3.1 miles    
Events Rain , Snow    
Averages and records for this station are not official NWS values.
T = Trace of Precipitation, MM = Missing Value Source: Averaged Metar Reports

Daily Weather History Graph

Daily Weather History Graph

Search for Another Location

Airport or City:

Trip Planner

Search our weather history database for the weather conditions in past years. The results will help you decide how hot, cold, wet, or windy it might be!

Date:

Astronomy

Jan. 18, 2013 Rise Set
Actual Time 7:23 AM CET 4:23 PM CET
Civil Twilight 6:49 AM CET 4:57 PM CET
Nautical Twilight 6:11 AM CET 5:35 PM CET
Astronomical Twilight 5:34 AM CET 6:12 PM CET
Moon 10:19 AM CET (1/18) No Moon Set
Length of Visible Light 10h 08m
Length of Day
8h 59m
Waxing Crescent, 45% of the Moon is Illuminated
Jan 18
Waxing Crescent
Jan 19
First Quarter
Jan 27
Full
Feb 3
Last Quarter
Feb 10
New

Hourly Weather History & Observations

Time (CET) Temp. Windchill Dew Point Humidity Pressure Visibility Wind Dir Wind Speed Gust Speed Precip Events Conditions
12:00 AM 33.8 °F 29.6 °F 33.8 °F 100% 29.65 in 3.7 mi North 4.6 mph - N/A   Overcast
12:30 AM 33.8 °F 28.6 °F 33.8 °F 100% 29.65 in 3.7 mi NNW 5.8 mph - N/A   Overcast
1:00 AM 33.8 °F 27.7 °F 33.8 °F 100% 29.62 in 3.7 mi NW 6.9 mph - N/A   Overcast
1:30 AM 35.6 °F 29.2 °F 33.8 °F 93% 29.62 in 4.3 mi NNW 8.1 mph - N/A   Overcast
2:00 AM 35.6 °F 28.6 °F 33.8 °F 93% 29.62 in 6.2 mi NNW 9.2 mph - N/A   Overcast
2:30 AM 35.6 °F 28.6 °F 33.8 °F 93% 29.62 in 6.2 mi NNW 9.2 mph - N/A   Overcast
3:00 AM 35.6 °F 28.0 °F 32.0 °F 87% 29.62 in 6.2 mi NNW 10.4 mph - N/A   Mostly Cloudy
3:30 AM 33.8 °F 28.6 °F 32.0 °F 93% 29.62 in 6.2 mi North 5.8 mph - N/A   Mostly Cloudy
4:00 AM 33.8 °F 27.7 °F 32.0 °F 93% 29.59 in 6.2 mi North 6.9 mph - N/A   Overcast
4:30 AM 33.8 °F 27.7 °F 32.0 °F 93% 29.59 in 6.2 mi NNW 6.9 mph - N/A Snow Light Snow
5:00 AM 33.8 °F 25.8 °F 32.0 °F 93% 29.59 in 6.2 mi NNW 10.4 mph - N/A Snow Light Snow
5:30 AM 33.8 °F 25.3 °F 32.0 °F 93% 29.59 in 6.2 mi NNW 11.5 mph - N/A Snow Light Snow
6:00 AM 33.8 °F 25.8 °F 32.0 °F 93% 29.56 in 6.2 mi NNW 10.4 mph - N/A Snow Light Snow
6:30 AM 33.8 °F 25.3 °F 32.0 °F 93% 29.56 in 6.2 mi NNW 11.5 mph - N/A Snow Light Snow
7:00 AM 33.8 °F 25.3 °F 32.0 °F 93% 29.56 in 6.2 mi NNW 11.5 mph - N/A Snow Light Snow
7:30 AM 33.8 °F 25.8 °F 32.0 °F 93% 29.56 in 5.0 mi NNW 10.4 mph - N/A Snow Light Snow
8:00 AM 33.8 °F 25.8 °F 32.0 °F 93% 29.53 in 3.1 mi NNW 10.4 mph - N/A Snow Light Snow
8:30 AM 33.8 °F 26.4 °F 32.0 °F 93% 29.56 in 2.5 mi NNW 9.2 mph - N/A Snow Light Snow
9:00 AM 32.0 °F 24.8 °F 32.0 °F 100% 29.56 in 1.6 mi NNW 8.1 mph - N/A Snow Snow
9:30 AM 32.0 °F 24.8 °F 32.0 °F 100% 29.56 in 1.1 mi NW 8.1 mph - N/A Snow Snow
10:00 AM 32.0 °F 24.2 °F 32.0 °F 100% 29.53 in 1.6 mi NW 9.2 mph - N/A Snow Light Snow
10:30 AM 32.0 °F 24.2 °F 32.0 °F 100% 29.53 in 1.1 mi NNW 9.2 mph - N/A Snow Snow
11:00 AM 32.0 °F 23.6 °F 32.0 °F 100% 29.53 in 1.1 mi NNW 10.4 mph - N/A Snow Snow
11:30 AM 32.0 °F 24.2 °F 32.0 °F 100% 29.53 in 1.1 mi NNW 9.2 mph - N/A Snow Snow
12:00 PM 33.8 °F 25.8 °F 33.8 °F 100% 29.53 in 1.6 mi NNW 10.4 mph - N/A Snow Light Snow
12:30 PM 32.0 °F 24.2 °F 32.0 °F 100% 29.50 in 1.6 mi NNW 9.2 mph - N/A Rain , Snow Light Rain
1:00 PM 33.8 °F 26.4 °F 33.8 °F 100% 29.50 in 0.9 mi NNW 9.2 mph - N/A Snow Snow
1:30 PM 32.0 °F 24.2 °F 32.0 °F 100% 29.50 in 0.9 mi NNW 9.2 mph - N/A Snow Snow
2:00 PM 32.0 °F 23.6 °F 32.0 °F 100% 29.50 in 0.9 mi NNW 10.4 mph - N/A Snow Snow
2:30 PM 32.0 °F 23.6 °F 32.0 °F 100% 29.50 in 1.2 mi NNW 10.4 mph - N/A Snow Light Snow
3:00 PM 33.8 °F 25.8 °F 33.8 °F 100% 29.50 in 1.6 mi NNW 10.4 mph - N/A Rain , Snow Light Rain
3:30 PM 32.0 °F 23.6 °F 32.0 °F 100% 29.50 in 1.6 mi NNW 10.4 mph - N/A Snow Light Snow
4:00 PM 32.0 °F 23.6 °F 32.0 °F 100% 29.50 in 1.1 mi NNW 10.4 mph - N/A Snow Light Snow
4:30 PM 32.0 °F 24.2 °F 32.0 °F 100% 29.50 in 1.1 mi NNW 9.2 mph - N/A Snow Light Snow
5:00 PM 32.0 °F 25.6 °F 32.0 °F 100% 29.50 in 1.1 mi NNW 6.9 mph - N/A Snow Light Snow
5:30 PM 32.0 °F 25.6 °F 32.0 °F 100% 29.50 in 1.1 mi NW 6.9 mph - N/A Snow Light Snow
6:00 PM 32.0 °F 23.6 °F 32.0 °F 100% 29.50 in 1.9 mi NNW 10.4 mph - N/A Snow Light Snow
6:30 PM 32.0 °F 24.2 °F 32.0 °F 100% 29.50 in 3.1 mi NW 9.2 mph - N/A Snow Light Snow
7:00 PM 32.0 °F 23.6 °F 32.0 °F 100% 29.50 in 2.8 mi NW 10.4 mph - N/A Snow Light Snow
7:30 PM 32.0 °F 23.6 °F 32.0 °F 100% 29.50 in 2.8 mi NW 10.4 mph - N/A Snow Light Snow
8:00 PM 32.0 °F 24.2 °F 32.0 °F 100% 29.50 in 2.2 mi NW 9.2 mph - N/A Snow Light Snow
8:30 PM 30.2 °F 21.3 °F 30.2 °F 100% 29.50 in 2.5 mi WNW 10.4 mph - N/A   Overcast
9:00 PM 30.2 °F 21.3 °F 30.2 °F 100% 29.50 in 1.9 mi NW 10.4 mph - N/A   Overcast
9:30 PM 30.2 °F 21.3 °F 30.2 °F 100% 29.50 in 2.2 mi NW 10.4 mph - N/A   Overcast
10:00 PM 30.2 °F 22.6 °F 30.2 °F 100% 29.50 in 2.2 mi West 8.1 mph - N/A Snow Light Snow
10:30 PM 30.2 °F 21.9 °F 30.2 °F 100% 29.50 in 2.5 mi WNW 9.2 mph - N/A Snow Light Snow
11:00 PM 30.2 °F 23.4 °F 30.2 °F 100% 29.50 in 3.1 mi WNW 6.9 mph - N/A Snow Light Snow
11:30 PM 30.2 °F 22.6 °F 30.2 °F 100% 29.50 in 3.7 mi West 8.1 mph - N/A   Mostly Cloudy